{"data":{"norad_id":43776,"intl_designator":"2018-099U","name":"SPAWAR-CAL-R","alt_names":[],"object_type":"PAYLOAD","status":"ACTIVE","operator":null,"country":"US","launch_date":"2018-12-03","launch_site_code":"AFWTR","launch_vehicle":null,"mission":null,"orbit_class":"UNKNOWN","rcs_meters":null,"size_class":null,"mass_kg":null,"dimensions":null,"purposes":[],"wikipedia_slug":null,"has_3d_model":false,"image_url":null,"decayed_at":null,"tle_current":{"epoch":"2026-09-20T01:01:24.343104Z","epoch_age_seconds":95231,"freshness":"FRESH","line1":"1 43776U 18099U   26263.04264286  .00001482  00000+0  10546-3 0  9998","line2":"2 43776  97.4306 300.0629 0020810  40.2972 319.9793 15.05959114426275","mean_motion":15.05959114,"eccentricity":0.002081,"inclination_deg":97.4306,"raan_deg":300.0629,"arg_perigee_deg":40.2972,"mean_anomaly_deg":319.9793,"bstar":0.00010546,"rev_number":42627,"period_min":95.620125846259,"perigee_km":534.14867668918,"apogee_km":562.97760267053,"semimajor_km":6926.7001396799,"source":"CELESTRAK","updated_at":"2026-09-20T09:00:14.403318Z"}}}